WP4MXZ San Sebastian PR US current weather conditions

sailwx.info

Wind from 181

Air temperature 23.9° C
Dewpoint 23.9° C

Last reported at 2014-Oct-26 02:03 UTC.
Time now 2014-Oct-26 03:52 UTC

Location: N 18°20' W 067°00'.
View on Google Maps.

See reports from other nearby stations

  
Tides and Currents Weather Stations Pressure Air Temp Water Temp Dewpoint Dewpoint Depression Visibility Wind Speed Wind Dir Waves Ship Positions
date/time (UTC)wind fromknots sea level pressurealtimeterstation pressurevisibilityair tempwater tempwave heightnotes
2014-Oct-26 02:03 181 23.9
2014-Oct-26 01:33 181 24.4
2014-Oct-26 01:04 181 24.4
2014-Oct-25 23:33 235 26.1
2014-Oct-25 23:03 243 27.2
2014-Oct-25 22:03 243 28.9
2014-Oct-25 21:33 258 30.0
2014-Oct-25 21:03 242 0 gusting 6 31.1
2014-Oct-25 20:33 264 1 gusting 10 31.7
2014-Oct-25 20:03 252 0 gusting 6 31.7
2014-Oct-25 19:33 342 31.1
2014-Oct-25 19:03 006 0 gusting 4 33.3
2014-Oct-25 18:33 221 2 gusting 8 33.3
2014-Oct-25 18:03 256 4 gusting 8 33.3
2014-Oct-25 17:34 277 3 gusting 7 33.3
2014-Oct-25 16:33 227 2 gusting 6 33.3
2014-Oct-25 16:04 269 2 gusting 6 32.2
2014-Oct-25 15:33 006 0 gusting 4 32.2
2014-Oct-25 15:03 314 31.7
2014-Oct-25 14:34 268 31.1
2014-Oct-25 14:03 166 30.6
2014-Oct-25 13:34 163 29.4
2014-Oct-25 13:04 163 27.8
2014-Oct-25 12:33 163 26.1
2014-Oct-25 12:03 163 25.0
2014-Oct-25 11:33 163 22.8
2014-Oct-25 11:03 163 21.7
2014-Oct-25 10:33 163 21.1
2014-Oct-25 10:03 163 21.1
2014-Oct-25 09:33 163 21.1
2014-Oct-25 09:04 163 21.7
2014-Oct-25 08:33 163 21.7
2014-Oct-25 08:03 163 21.7
2014-Oct-25 07:33 163 21.7
2014-Oct-25 07:03 163 22.2
2014-Oct-25 06:33 163 22.2
2014-Oct-25 06:03 163 22.2
2014-Oct-25 05:34 163 22.8
2014-Oct-25 05:04 163 23.3
2014-Oct-25 04:33 163 23.3
2014-Oct-25 04:03 163 23.9
2014-Oct-25 03:34 163 23.9
2014-Oct-25 03:03 120 24.4
2014-Oct-25 02:33 120 25.0
2014-Oct-25 02:04 007 25.0
2014-Oct-25 01:34 007 25.0
2014-Oct-25 01:04 007 25.6
2014-Oct-25 00:33 007 25.6
2014-Oct-25 00:03 007 26.1
2014-Oct-24 23:34 007 26.1
2014-Oct-24 23:03 007 26.7
2014-Oct-24 22:34 007 27.2
2014-Oct-24 22:04 007 28.3
2014-Oct-24 21:34 007 28.9
2014-Oct-24 21:04 007 28.9
2014-Oct-24 20:34 013 30.0
2014-Oct-24 20:03 353 30.6
2014-Oct-24 19:34 004 31.7
2014-Oct-24 19:04 005 31.1
2014-Oct-24 18:33 303 4 30.0
2014-Oct-24 18:03 279 2 31.1
2014-Oct-24 17:34 29.4
2014-Oct-24 17:04 002 31.1
2014-Oct-24 16:33 336 1 gusting 4 32.8
2014-Oct-24 16:03 304 0 gusting 3 32.2
2014-Oct-24 15:33 293 31.7
2014-Oct-24 15:03 321 32.2
2014-Oct-24 14:04 050 31.1
2014-Oct-24 13:34 051 28.9
2014-Oct-24 13:03 052 27.2
2014-Oct-24 12:33 117 25.6
2014-Oct-24 12:04 117 23.9
2014-Oct-24 11:33 117 22.8
2014-Oct-24 11:03 209 21.1
2014-Oct-24 10:34 209 20.6
2014-Oct-24 10:03 209 21.1
2014-Oct-24 09:33 209 21.1
2014-Oct-24 09:04 209 21.7
2014-Oct-24 08:34 209 21.1
2014-Oct-24 08:04 209 21.7
2014-Oct-24 07:33 209 21.7
2014-Oct-24 07:03 209 22.2
2014-Oct-24 06:34 209 22.8
2014-Oct-24 06:04 209 22.8
2014-Oct-24 05:33 209 22.8
2014-Oct-24 05:04 209 23.3
2014-Oct-24 04:34 209 23.3
2014-Oct-24 04:04 209 23.9
2014-Oct-24 03:33 209 23.9
2014-Oct-24 03:03 209 24.4